Location: Benalto
(52.3088°N, 114.2787°W)
Time: 11:45:10
(UTC+00:00)

N. Korean satellite - Pass Details

Date: 30 November 2021
Orbit: 447 x 491 km, 97.3° (Epoch: 21 January)

Event Time Altitude Azimuth Distance (km) Brightness Sun altitude
Rises 12:59:05 0° 14° (NNE) 2,487 10.2 -21.1°
Reaches altitude 10° 13:01:09 10° 16° (NNE) 1,602 9.3 -20.7°
Maximum altitude 13:04:35 76° 103° (ESE) 470 6.5 -20.2°
Drops below altitude 10° 13:07:57 10° 190° (S) 1,574 9.2 -19.7°
Sets 13:09:58 0° 191° (SSW) 2,439 10.1 -19.4°
